Weather in Tabat

Russia / Republic of Khakassia     52°55′29″N   90°42′47″E
temp.,
°C
wind,
m/s
gust,
m/s
humid.,
%
clouds,
%
prec.,
mm/h
press.,
hPa
HPBL,
m
28 september, tue
tue2801:00−3se21711 0.0 102515
04:00−4se11752 0.0 102412
07:00−5s11784 0.0 102411
10:00+1nw10504 0.0 1023437
13:00+6n223744 0.0 10201023
16:00+7n2236100 0.0 1020960
19:00+1ese225691 0.0 102110
22:000se226394 0.0 102212
29 september, wed
wed2901:00−1sse1065100 0.0 102110
04:00−3e117531 0.0 102110
07:00−3e11806 0.0 102010
10:00+3n225445 0.0 1018403
13:00+7n3243100 0.0 1015643
16:00+7wnw1147100 0.0 1015452
19:00+3wsw0186100 1.1 101615
22:00+4sw129298 0.6 101634
30 september, thu
thu3001:00+3ssw1192100 0.6 101512
04:00+3s229299 0.0 101513
07:00+3s2290100 0.0 101414
10:00+7ssw1180100 0.0 1014134
13:00+11w2261100 0.0 1012917
16:00+11w2362100 0.3 1011956
19:00+7s1187100 0.6 101111
22:00+4sw61190100 6.9 1015685
1 october, fri
fri101:00+2wsw61284100 6.9 1015805
04:00+1sw3985100 0.0 1015362
07:00+2sw3883100 0.0 1015398
10:00+4wsw5872100 0.0 1016998
13:00+5wsw71059100 0.0 10161361
16:00+5wsw8116098 0.0 10171258
19:00+2sw6117637 0.0 1019616
22:00+1sw6127599 0.0 1020857
2 october, sat
sat201:00+2sw4107198 0.0 1020606
04:00+1ssw41072100 0.0 1020558
07:00+2sw41069100 0.0 1020654
10:00+4sw4851100 0.0 10201417
13:00+6wsw6845100 0.0 10191941
16:00+5wsw71154100 0.1 10201474
19:00+2wsw51074100 0.1 1022555
22:000wsw6108396 0.1 1025549